ALXO2: Washita River, Alex, OK

Data processed at Sun Oct 25 2020 23:55


All information presented herein is the property of the government of the United States of America and may be revised or deleted at any time without prior notice.
Dissemination of this information without the expressed written consent of the Public Affairs Office, Tulsa District U.S. Army Corps of Engineers is strictly prohibited.
These data are gathered electronically and, as presented, have not undergone any form of quality control. These data are not guaranteed to be valid or correct.
Go to home page.
Go to station list.
Go to home page.

Upstream stations:

Downstream station:
Previous Day
Next Day
Current Day
    
SHEF ID:       ALXO2     Washita River at Alex, OK
STATION TYPE:  
Regulating: Stage =    19.00, Flow =    20176

               PRECIP     STAGE  RIV-FLOW  BAT-LOAD
                   in        ft       cfs      volt
              Ccp-Rev   Ccp-Rev   Ccp-Rev   Ccp-Rev
(US/Central)
10/25 00:00      0.00      0.80       158     11.93
10/25 01:00      0.00      0.80       158     11.93
10/25 02:00      0.00      0.80       158     11.77
10/25 03:00      0.00      0.80       158     11.93
10/25 04:00      0.00      0.79       155     11.86
10/25 05:00      0.00      0.80       158     11.86
10/25 06:00      0.00      0.79       155     11.86
10/25 07:00      0.00      0.80       158     11.86
10/25 08:00      0.00      0.80       158     11.86
10/25 09:00      0.00      0.80       158     11.86
10/25 10:00      0.00      0.80       158     11.86
10/25 11:00      0.00      0.80       158     11.86
10/25 12:00      0.02      0.81       161     11.93
10/25 13:00      0.01      0.82       164     11.93
10/25 14:00      0.01      0.82       164     12.01
10/25 15:00      0.03      0.82       164     12.01
10/25 16:00      0.00      0.82       164     12.01
10/25 17:00      0.00      0.83       167     11.86
10/25 18:00      0.00      0.83       167     11.93
10/25 19:00      0.00      0.83       167     11.86
10/25 20:00      0.00      0.83       167     11.77
10/25 21:00      0.00      0.82       164     11.77
10/25 22:00      0.00      0.82       164     11.77
10/25 23:00      0.01      0.82       164     11.77